Flag for Canada Weather past 2 weeks in Vaughan, Ontario, Canada

Now
81 °F

Broken clouds.


Feels Like: 79 °F
Forecast: N/A
Wind: 8 mph from West

Location: Toronto Buttonville

Current Time: May 24, 2015 at 5:53:37 PM

Latest Report: May 24, 2015 at 5:00 PM


Visibility: 15 mi

Pressure: 30.13 "Hg

Humidity: 26%

Dew point: 43 °F

Location of VaughanLocation

Historic Weather in Vaughan — Graph

°F

Vaughan temperature yesterday

Maximum temperature yesterday: 73 °F (at 3:00 PM)
Minimum temperature yesterday: 37 °F (at 4:00 AM)
Average temperature yesterday: 55 °F

Past Weeks' High & Low Weather Summary

 TemperatureHumidityPressure
High82 °F (May 18, 2:00 PM)100% (May 10, 4:00 AM)30.49 "Hg (May 10, 4:00 AM)
Low37 °F (May 20, 6:00 AM)19% (May 23, 4:00 PM)29.74 "Hg (May 12, 3:00 AM)
Average59 °F60%30.09 "Hg
* Reported May 9 4:00 PM — May 24 4:00 PM, Vaughan, Weather by CustomWeather, © 2015

Note: Actual official high and low records may vary slightly from our data, if they occured in-between our weather recording intervals... More about our weather records

Advertising

Vaughan weather history for previous 24 hours

 ConditionsComfort  
Time TempWeatherWind HumidityBarometerVisibility
4:00 PM
Sun, May 24
79 °FPartly sunny.12 mph32%30.15 "Hg15 mi
3:00 PM82 °FPartly sunny.9 mph21%30.16 "Hg15 mi
2:00 PM82 °FPartly sunny.8 mph21%30.19 "Hg15 mi
1:00 PM79 °FPartly sunny.9 mph24%30.21 "Hg15 mi
12:00 PM77 °FPartly sunny.9 mph26%30.20 "Hg15 mi
11:00 AM75 °FPartly sunny.12 mph25%30.21 "Hg15 mi
10:00 AM72 °FPartly sunny.8 mph27%30.23 "Hg15 mi
9:00 AM66 °FScattered clouds.10 mph32%30.25 "Hg15 mi
8:00 AM61 °FPartly sunny.9 mph34%30.27 "Hg15 mi
7:00 AM55 °FPassing clouds.6 mph38%30.26 "Hg15 mi
6:00 AM55 °FPassing clouds.6 mph36%30.24 "Hg15 mi
5:00 AM55 °FPassing clouds.6 mph31%30.23 "Hg15 mi
4:00 AM55 °FPassing clouds.7 mph33%30.22 "Hg15 mi
3:00 AM57 °FClear.5 mph31%30.23 "Hg15 mi
2:00 AM57 °FClear.5 mph31%30.24 "Hg15 mi
1:00 AM59 °FPassing clouds.7 mph29%30.24 "Hg15 mi
12:00 AM59 °FClear.5 mph31%30.25 "Hg15 mi
11:00 PM
Sat, May 23
63 °FClear.8 mph30%30.25 "Hg15 mi
10:00 PM64 °FClear.8 mph30%30.24 "Hg15 mi
9:00 PM68 °FPassing clouds.5 mph24%30.23 "Hg15 mi
8:00 PM70 °FPassing clouds.12 mph21%30.24 "Hg15 mi
7:00 PM72 °FPassing clouds.8 mph19%30.24 "Hg15 mi
6:00 PM70 °FPassing clouds.10 mph27%30.27 "Hg15 mi
5:00 PM68 °FPassing clouds.14 mph24%30.28 "Hg15 mi
Weather by CustomWeather, © 2015

See weather overviewHow to use our weather pages